ALMASAT-1
1 38078U 12006B 19248.84978831 .00066696 52630-5 33878-3 0 9993
2 38078 69.4275 39.2643 0145145 139.8089 337.3869 15.67672523409877
HORYU-2
1 38340U 12025D 19247.88874614 .00000114 00000-0 24633-4 0 9995
2 38340 098.3232 288.8011 0010507 230.6291 129.3988 14.75743684382283
RS-40
1 38735U 12041C 19248.13194736 -.00000007 00000-0 -12101-3 0 9999
2 38735 82.4776 179.1874 0018182 64.8935 295.4037 12.42578349322297
BEESAT-3
1 39135U 13015F 19247.90222047 .00000806 00000-0 49452-4 0 9992
2 39135 064.8692 146.4335 0031733 302.8632 056.9441 15.17576273351726
BEESAT-2
1 39136U 13015G 19248.23266679 .00000980 00000-0 59095-4 0 9996
2 39136 64.8688 149.4139 0023636 304.8302 55.0600 15.16993910352083
ZACUBE-1
1 39417U 13066B 19248.81507383 .00000168 00000-0 27316-4 0 9997
2 39417 97.5627 257.8708 0060094 133.5573 227.0653 14.81142423312758
TRITON-1
1 39427U 13066M 19248.87072341 .00000172 00000-0 35712-4 0 9999
2 39427 97.6844 221.3893 0112278 272.0798 86.7554 14.67873333309955
GOMX-1
1 39430U 13066Q 19248.81978249 .00000204 00000-0 45847-4 0 9995
2 39430 97.7524 200.1871 0151788 5.2442 355.0312 14.59278561308144
LO-74
1 39440U 13066AA 19247.99020875 .00000144 00000-0 27066-4 0 9993
2 39440 97.6063 241.8207 0079901 189.5340 170.4359 14.75879896311528
AO-73
1 39444U 13066AE 19247.82656973 .00000221 00000-0 33341-4 0 9992
2 39444 97.5603 258.9584 0059275 130.3682 230.2729 14.81966336311500
SPROUT
1 39770U 14029E 19248.81298130 .00000799 00000-0 94453-4 0 9992
2 39770 97.8880 351.6088 0008806 177.8168 182.3115 14.87408638286599
DUCHIFAT-1
1 40021U 14033M 19248.21591311 .00000431 00000-0 49786-4 0 9991
2 40021 97.9226 173.0686 0013510 145.5422 214.6674 14.90671347283249
NANOSATCBR1
1 40024U 14033Q 19248.21705365 .00000287 00000-0 35744-4 0 9998
2 40024 97.9113 170.2902 0012757 148.8430 211.3546 14.89879856283137
EO-79
1 40025U 14033R 19248.46135148 .00000269 00000-0 34534-4 0 9998
2 40025 97.9030 168.0119 0012895 154.2375 205.9487 14.88974725283046
DTUSAT-2
1 40030U 14033W 19248.74789981 .00000178 00000-0 25148-4 0 9995
2 40030 97.8942 166.3241 0012475 148.8147 211.3812 14.88564204283017
EO-80
1 40032U 14033Y 19248.48759505 .00000192 00000-0 26629-4 0 9998
2 40032 97.8949 166.0657 0012417 150.3105 209.8819 14.88507880282961
ANTELSAT
1 40034U 14033AA 19248.51248022 .00000152 00000-0 29988-4 0 9998
2 40034 97.7502 112.3008 0058025 200.9047 158.9789 14.74128420280280
VELOX-1
1 40057U 14034E 19248.83486278 .00000220 00000-0 38337-4 0 9990
2 40057 98.2449 13.6704 0010508 346.9519 13.1420 14.77699413279455
DAURIA DX 1
1 40071U 14037C 19248.85824757 .00000065 00000-0 15864-4 0 9996
2 40071 98.4367 46.8268 0008067 340.5058 19.5848 14.81286952278975
UKUBE-1
1 40074U 14037F 19248.71717009 .00000240 00000-0 36005-4 0 9990
2 40074 98.4449 55.1981 0004165 342.7462 17.3620 14.84088472279371
HODOYOSHI-1
1 40299U 14070B 19248.80681485 .00000799 00000-0 36416-4 0 9999
2 40299 97.3454 326.9081 0014228 119.6402 23.1387 15.23430719268316
CHUBUSAT-1
1 40300U 14070C 19248.82043663 .00000836 00000-0 39245-4 0 9999
2 40300 97.3210 320.9838 0020565 134.7015 3.8417 15.22154960268052
QSAT-EOS
1 40301U 14070D 19248.79195074 .00002302 00000-0 91187-4 0 9993
2 40301 97.3232 324.4168 0027225 117.3897 3.9702 15.26090690268351
FIREBIRD FU3
1 40377U 15003B 19248.47545629 .00001269 00000-0 53699-4 0 9990
2 40377 99.1186 244.8774 0126403 187.5155 172.4183 15.18985669253881
FIREBIRD FU4
1 40378U 15003C 19248.59398187 .00001332 00000-0 56095-4 0 9993
2 40378 99.1189 245.1012 0126612 187.0030 172.9436 15.18994881253908
GRIFEX
1 40379U 15003D 19248.75831832 .00000892 00000-0 42246-4 0 9994
2 40379 99.1190 238.8768 0134364 206.2921 153.1445 15.15630806253568
NO-84
1 40654U 15025D 19247.41413761 .00011476 00000 0 15592-3 0 7128
2 40654 54.9885 177.9582 0135494 164.5188 196.0054 15.48103354124486
NO-83
1 40655U 15025E 19247.47102408 .00102396 14514-4 35731-3 0 8814
2 40655 54.9641 43.0918 0039374 246.3299 113.3323 15.87990279126043
DEORBITSAIL
1 40719U 15032E 19248.18660091 .00000322 00000-0 53116-4 0 9994
2 40719 97.8983 138.3800 0017785 54.7917 305.4956 14.76782621223846
NUDT-PHONESAT
1 40900U 15049B 19248.82650524 .00002499 00000-0 10920-3 0 9997
2 40900 97.4379 257.3933 0011036 268.4930 216.0662 15.22997604219706
XW-2A
1 40903U 15049E 19248.76480902 .00002355 00000-0 57075-4 0 9998
2 40903 97.3309 291.9542 0012303 214.3429 281.5853 15.42051248222432
XW-2C
1 40906U 15049H 19248.76240804 .00000584 00000-0 34098-4 0 9998
2 40906 97.4692 249.5391 0013354 288.7746 188.3783 15.15736682218978
XW-2D
1 40907U 15049J 19248.91914596 .00000910 00000-0 50895-4 0 9998
2 40907 97.4673 249.3744 0012676 284.8725 143.1517 15.15932031219014
LILACSAT-2
1 40908U 15049K 19248.78776825 .00000290 00000-0 19650-4 0 9990
2 40908 97.4809 247.9938 0014432 292.1317 192.1816 15.13839326218775
XW-2E
1 40909U 15049L 19248.82525641 .00001189 00000-0 61949-4 0 9990
2 40909 97.4612 252.2340 0011990 279.1973 203.8590 15.17883074219192
XW-2F
1 40910U 15049M 19248.74926041 .00001266 00000-0 66624-4 0 9993
2 40910 97.4638 251.3191 0013167 277.5380 202.3569 15.17396709219002
XW-2B
1 40911U 15049N 19248.76666845 .00000584 00000-0 33995-4 0 9996
2 40911 97.4697 249.8876 0012619 286.6063 191.7285 15.15858092218887
DCBB
1 40912U 15049P 19248.85770926 .00001237 00000-0 61032-4 0 9992
2 40912 97.4511 255.1907 0013277 255.9731 225.6403 15.19719953219336
TW-1C
1 40926U 15051B 19248.74413168 .00015286 00000-0 21231-3 0 9995
2 40926 97.1298 294.8535 0009355 76.9743 61.8388 15.57050940222458
TW-1A
1 40928U 15051D 19248.78272892 .00004139 00000-0 10173-3 0 9996
2 40928 97.1402 278.3301 0011910 138.7805 310.0943 15.41125082221358
IO-86
1 40931U 15052B 19247.63149343 .00000508 00000-0 -18355-4 0 9996
2 40931 5.9930 220.7492 0013038 180.1577 179.9020 14.76611073212802
LQSat
1 40958U 15057A 19248.83333304 .00000004 00000-0 82822-5 0 9996
2 40958 97.8926 315.8675 0017852 351.9721 8.1199 14.73087651210457
AO-85
1 40967U 15058D 19248.39227010 .00000069 00000 0 26307-4 0 8000
2 40967 64.7754 279.3914 0191100 177.3906 182.8192 14.75986232119358
ATHENOXAT-1
1 41168U 15077C 19248.71621370 .00001809 00000-0 60284-4 0 9993
2 41168 14.9889 356.8953 0011470 112.1843 247.9696 15.13738264205979
ChubuSat-2
1 41338U 16012B 19248.53853060 .00000323 00000-0 18368-4 0 9991
2 41338 31.0042 3.6815 0013657 164.6753 195.4298 15.00173719194767
ChubuSat-3
1 41339U 16012C 19248.76494437 .00000370 00000-0 21986-4 0 9998
2 41339 31.0116 0.2325 0013330 174.1986 185.8805 15.00348076194791
Horyu-4
1 41340U 16012D 19247.69479348 .00000483 00000-0 29953-4 0 9992
2 41340 31.0060 357.6938 0013850 183.4793 176.5748 15.01300395194747
OUFTI-1
1 41458U 16025C 19247.79822164 .00002049 00000-0 10658-3 0 9996
2 41458 98.1010 338.6145 0167450 94.4991 267.5384 15.05983771184321
e-st@r-II
1 41459U 16025D 19248.69739848 .00002021 00000-0 10568-3 0 9993
2 41459 98.1024 339.1796 0169133 92.9321 269.1264 15.05617468184439
AAUSAT4
1 41460U 16025E 19248.83888941 .00003188 00000-0 16081-3 0 9991
2 41460 98.0966 340.7677 0158689 84.4165 277.5135 15.07569472184597
LO-87
1 41557U 16033B 19248.79729112 .00001188 00000-0 47039-4 0 9992
2 41557 97.4165 335.8378 0014368 25.1510 335.0426 15.27345877182169
NuSat2
1 41558U 16033C 19248.79859691 .00001199 00000-0 44844-4 0 9992
2 41558 97.4194 337.1430 0013429 25.7270 334.4635 15.29255624182226
Lapan A3
1 41603U 16040E 19248.73398174 .00000143 00000-0 97934-5 0 9996
2 41603 97.3531 305.4667 0014840 119.3000 28.9910 15.19737730177744
